When you browse on this site, cookies collect data to enhance your experience and personalize the content and advertising you see.
Visit our Privacy Policy to learn more. By continuing to use the site, you agree to this use of cookies and data.

Hourly Weather Cerny Most

Today, 14 August, Friday

Time Temperature Precipitation Wind Pressure Humidity
00:00 +21°C° 0.1 mm 1 mps 738 mmHg 86%
01:00 +21°C° 0.1 mm 1 mps 738 mmHg 88%
02:00 +20°C° 0 mm 1 mps 738 mmHg 89%
03:00 +20°C° 0 mm 1 mps 738 mmHg 91%
04:00 +20°C° 0 mm 1 mps 737 mmHg 92%
05:00 +21°C° 0 mm 1 mps 738 mmHg 90%
06:00 +21°C° 0 mm 1 mps 738 mmHg 87%
07:00 +22°C° 0 mm 1 mps 738 mmHg 84%
08:00 +24°C° 0 mm 1 mps 738 mmHg 78%
09:00 +25°C° 0 mm 1 mps 738 mmHg 71%
10:00 +27°C° 0 mm 1 mps 738 mmHg 65%
11:00 +27°C° 0.2 mm 1 mps 738 mmHg 62%
12:00 +28°C° 0.2 mm 1 mps 738 mmHg 59%
13:00 +29°C° 0.2 mm 1 mps 737 mmHg 56%
14:00 +29°C° 0.9 mm 2 mps 737 mmHg 57%
15:00 +28°C° 0.9 mm 2 mps 737 mmHg 58%
16:00 +28°C° 0.9 mm 2 mps 737 mmHg 59%
17:00 +27°C° 1.4 mm 2 mps 737 mmHg 66%
18:00 +26°C° 1.4 mm 1 mps 736 mmHg 72%
19:00 +24°C° 1.4 mm 1 mps 736 mmHg 78%
20:00 +24°C° 1 mm 1 mps 737 mmHg 81%
21:00 +23°C° 1 mm 2 mps 737 mmHg 84%
22:00 +21°C° 1 mm 2 mps 737 mmHg 87%
23:00 +21°C° 0.3 mm 2 mps 737 mmHg 88%

Tomorrow, 15 August, Saturday

Time Temperature Precipitation Wind Pressure Humidity
00:00 +21°C° 0.3 mm 2 mps 737 mmHg 89%
01:00 +20°C° 0.3 mm 2 mps 737 mmHg 91%
02:00 +20°C° 0.3 mm 2 mps 737 mmHg 92%
03:00 +20°C° 0.3 mm 2 mps 737 mmHg 92%
04:00 +20°C° 0.3 mm 3 mps 737 mmHg 93%
05:00 +20°C° 0.4 mm 3 mps 737 mmHg 93%
06:00 +20°C° 0.4 mm 3 mps 737 mmHg 93%
07:00 +20°C° 0.4 mm 3 mps 737 mmHg 93%
08:00 +20°C° 0.6 mm 3 mps 738 mmHg 93%
09:00 +20°C° 0.6 mm 3 mps 738 mmHg 92%
10:00 +20°C° 0.6 mm 3 mps 738 mmHg 92%
11:00 +20°C° 0.3 mm 2 mps 738 mmHg 91%
12:00 +20°C° 0.3 mm 2 mps 738 mmHg 90%
13:00 +21°C° 0.3 mm 2 mps 738 mmHg 88%
14:00 +21°C° 0 mm 2 mps 738 mmHg 85%
15:00 +23°C° 0 mm 1 mps 738 mmHg 81%
16:00 +23°C° 0 mm 1 mps 738 mmHg 77%
17:00 +23°C° 0 mm 1 mps 738 mmHg 80%
18:00 +22°C° 0 mm 1 mps 738 mmHg 83%
19:00 +22°C° 0 mm 1 mps 738 mmHg 85%
20:00 +19°C° 0.1 mm 0 mps 738 mmHg 87%
21:00 +18°C° 0.1 mm 0 mps 738 mmHg 88%
22:00 +17°C° 0.1 mm 0 mps 738 mmHg 90%
23:00 +17°C° 0 mm 0 mps 738 mmHg 90%

Day after tomorrow, 16 August, Sunday

Time Temperature Precipitation Wind Pressure Humidity
00:00 +17°C° 0 mm 0 mps 738 mmHg 90%
01:00 +16°C° 0 mm 0 mps 738 mmHg 91%
02:00 +16°C° 0 mm 0 mps 738 mmHg 91%
03:00 +16°C° 0 mm 0 mps 738 mmHg 91%
04:00 +16°C° 0 mm 0 mps 737 mmHg 91%
05:00 +17°C° 0 mm 0 mps 738 mmHg 88%
06:00 +17°C° 0 mm 0 mps 738 mmHg 86%
07:00 +18°C° 0 mm 0 mps 738 mmHg 83%
08:00 +20°C° 0 mm 0 mps 738 mmHg 77%
09:00 +23°C° 0 mm 1 mps 738 mmHg 71%
10:00 +24°C° 0 mm 1 mps 738 mmHg 66%
11:00 +25°C° 0 mm 1 mps 738 mmHg 63%
12:00 +26°C° 0 mm 1 mps 738 mmHg 60%
13:00 +26°C° 0 mm 1 mps 738 mmHg 58%
14:00 +27°C° 0 mm 1 mps 737 mmHg 56%
15:00 +27°C° 0 mm 1 mps 737 mmHg 55%
16:00 +27°C° 0 mm 1 mps 737 mmHg 54%
17:00 +26°C° 0 mm 1 mps 737 mmHg 58%
18:00 +25°C° 0 mm 1 mps 737 mmHg 63%
19:00 +24°C° 0 mm 1 mps 736 mmHg 68%
20:00 +23°C° 0.1 mm 1 mps 737 mmHg 71%
21:00 +22°C° 0.1 mm 1 mps 737 mmHg 74%
22:00 +22°C° 0.1 mm 1 mps 737 mmHg 76%
23:00 +21°C° 0.1 mm 1 mps 737 mmHg 79%

17 August, Monday

Time Temperature Precipitation Wind Pressure Humidity
00:00 +21°C° 0.1 mm 1 mps 736 mmHg 82%
01:00 +20°C° 0.1 mm 1 mps 736 mmHg 85%
02:00 +20°C° 0 mm 1 mps 736 mmHg 87%
03:00 +20°C° 0 mm 1 mps 736 mmHg 88%
04:00 +19°C° 0 mm 1 mps 736 mmHg 90%
05:00 +20°C° 0 mm 1 mps 736 mmHg 87%
06:00 +21°C° 0 mm 1 mps 736 mmHg 84%
07:00 +22°C° 0 mm 1 mps 736 mmHg 81%
08:00 +24°C° 0.1 mm 1 mps 736 mmHg 75%
09:00 +25°C° 0.1 mm 1 mps 736 mmHg 69%
10:00 +27°C° 0.1 mm 1 mps 736 mmHg 63%
11:00 +28°C° 0.5 mm 1 mps 736 mmHg 59%
12:00 +29°C° 0.5 mm 1 mps 736 mmHg 55%
13:00 +29°C° 0.5 mm 2 mps 736 mmHg 50%
14:00 +30°C° 0.1 mm 2 mps 736 mmHg 49%
15:00 +30°C° 0.1 mm 2 mps 735 mmHg 47%
16:00 +30°C° 0.1 mm 1 mps 735 mmHg 46%
17:00 +28°C° 0 mm 1 mps 735 mmHg 52%
18:00 +27°C° 0 mm 1 mps 735 mmHg 58%
19:00 +25°C° 0 mm 1 mps 735 mmHg 64%
20:00 +24°C° 0.2 mm 1 mps 735 mmHg 68%
21:00 +23°C° 0.2 mm 1 mps 735 mmHg 72%
22:00 +22°C° 0.2 mm 1 mps 735 mmHg 76%
23:00 +22°C° 0.7 mm 1 mps 735 mmHg 79%

18 August, Tuesday

Time Temperature Precipitation Wind Pressure Humidity
00:00 +21°C° 0.7 mm 1 mps 735 mmHg 82%
01:00 +20°C° 0.7 mm 2 mps 735 mmHg 85%
02:00 +20°C° 0.1 mm 2 mps 735 mmHg 86%
03:00 +20°C° 0.1 mm 2 mps 735 mmHg 86%
04:00 +20°C° 0.1 mm 2 mps 735 mmHg 86%
05:00 +20°C° 0.2 mm 2 mps 735 mmHg 87%
06:00 +20°C° 0.2 mm 3 mps 735 mmHg 88%
07:00 +20°C° 0.2 mm 3 mps 735 mmHg 89%
08:00 +19°C° 0.5 mm 4 mps 736 mmHg 89%
09:00 +19°C° 0.5 mm 4 mps 736 mmHg 89%
10:00 +19°C° 0.5 mm 5 mps 736 mmHg 89%
11:00 +19°C° 1.1 mm 5 mps 736 mmHg 89%
12:00 +17°C° 1.1 mm 5 mps 736 mmHg 89%
13:00 +17°C° 1.1 mm 5 mps 736 mmHg 89%
14:00 +17°C° 0.6 mm 5 mps 736 mmHg 89%
15:00 +18°C° 0.6 mm 4 mps 736 mmHg 89%
16:00 +18°C° 0.6 mm 4 mps 736 mmHg 89%
17:00 +17°C° 0.1 mm 3 mps 736 mmHg 89%
18:00 +17°C° 0.1 mm 3 mps 736 mmHg 89%
19:00 +17°C° 0.1 mm 2 mps 736 mmHg 89%
20:00 +17°C° 0 mm 2 mps 736 mmHg 89%
21:00 +17°C° 0 mm 2 mps 736 mmHg 90%
22:00 +16°C° 0 mm 2 mps 737 mmHg 91%
23:00 +16°C° 0 mm 2 mps 736 mmHg 91%

19 August, Wednesday

Time Temperature Precipitation Wind Pressure Humidity
00:00 +16°C° 0 mm 2 mps 736 mmHg 91%
01:00 +16°C° 0 mm 2 mps 736 mmHg 91%
02:00 +16°C° 0 mm 2 mps 736 mmHg 90%
03:00 +16°C° 0 mm 3 mps 736 mmHg 90%
04:00 +14°C° 0 mm 3 mps 736 mmHg 89%
05:00 +16°C° 0 mm 3 mps 736 mmHg 86%
06:00 +17°C° 0 mm 3 mps 736 mmHg 84%
07:00 +17°C° 0 mm 3 mps 736 mmHg 81%
08:00 +19°C° 0.1 mm 4 mps 736 mmHg 76%
09:00 +20°C° 0.1 mm 4 mps 736 mmHg 70%
10:00 +22°C° 0.1 mm 5 mps 736 mmHg 65%
11:00 +22°C° 0.2 mm 5 mps 736 mmHg 61%
12:00 +23°C° 0.2 mm 5 mps 736 mmHg 57%
13:00 +25°C° 0.2 mm 5 mps 735 mmHg 54%
14:00 +25°C° 0.4 mm 5 mps 735 mmHg 55%
15:00 +25°C° 0.4 mm 5 mps 735 mmHg 56%
16:00 +25°C° 0.4 mm 5 mps 735 mmHg 57%
17:00 +22°C° 0.3 mm 4 mps 735 mmHg 63%
18:00 +21°C° 0.3 mm 3 mps 735 mmHg 70%
19:00 +19°C° 0.3 mm 3 mps 735 mmHg 77%
20:00 +18°C° 0.1 mm 3 mps 735 mmHg 80%
21:00 +18°C° 0.1 mm 3 mps 735 mmHg 82%
22:00 +17°C° 0.1 mm 2 mps 735 mmHg 85%
23:00 +17°C° 0 mm 3 mps 735 mmHg 86%
Show more